{"data":{"norad_id":61503,"epoch":"2026-05-25T05:59:06.830304Z","epoch_age_seconds":46736,"freshness":"FRESH","line1":"1 61503U 24181A   26145.24938461 -.00000243  00000+0  00000+0 0  9994","line2":"2 61503   0.0449 359.0759 0001099  97.0461 159.3433  1.00267359  6599","mean_motion":1.00267359,"eccentricity":0.0001099,"inclination_deg":0.0449,"raan_deg":359.0759,"arg_perigee_deg":97.0461,"mean_anomaly_deg":159.3433,"bstar":0,"rev_number":659,"period_min":1436.1602961937,"perigee_km":35783.201734893,"apogee_km":35792.469815709,"semimajor_km":42165.972775301,"source":"CELESTRAK","updated_at":"2026-05-25T13:38:14.147774Z"}}